Simultaneous Nadir Overpasses (SNOs) Predictions

Prediction of SNOs between AQUA and NOAA-19 Satellite Orbit:

Table of predicted SNOs for the next 14.0 days since TLE Epoch: 3/15/2013
Index Date (AQUA) Time (AQUA) Lat,Lon (AQUA) SZA (AQUA ) Date (NOAA-19) Time (NOAA-19) Lat,Lon (NOAA-19) SZA (NOAA-19 ) Distance(km) Time Diff (sec)
1 03/16/2013 13:13:55 -47.68, 176.39 129.70 03/16/2013 13:13:27 -47.58, 175.92 129.90 36.87 28
2 03/16/2013 14:02:58 46.10, -15.38 48.88 03/16/2013 14:03:59 45.98, -16.17 48.65 62.70 61
3 03/18/2013 17:58:09 -47.36, 105.44 130.81 03/18/2013 17:57:47 -47.29, 104.95 130.99 37.68 22
4 03/18/2013 18:47:17 46.07, -86.45 48.04 03/18/2013 18:48:23 45.92, -87.24 47.79 63.81 66
5 03/20/2013 22:16:34 46.03, 58.40 126.62 03/20/2013 22:15:26 45.80, 59.47 126.44 86.89 68
6 03/20/2013 22:42:23 -47.06, 34.48 131.89 03/20/2013 22:42:06 -46.95, 34.00 132.11 38.48 17
7 03/20/2013 23:31:36 46.07,-157.52 47.23 03/20/2013 23:32:48 45.93,-158.34 46.99 65.09 72
8 03/23/2013 03:00:53 46.01, -12.68 125.78 03/23/2013 02:59:51 45.79, -11.62 125.59 85.40 62
9 03/23/2013 03:26:35 -46.66, -36.44 133.05 03/23/2013 03:26:24 -46.57, -36.94 133.25 39.21 11
10 03/25/2013 07:45:11 46.02, -83.75 124.92 03/25/2013 07:44:15 45.84, -82.70 124.70 83.92 56
11 03/25/2013 08:10:48 -46.35,-107.40 134.13 03/25/2013 08:10:43 -46.26,-107.90 134.33 40.16 5
12 03/27/2013 12:18:28 81.16, -92.93 87.21 03/27/2013 12:17:15 80.53, -91.26 86.98 76.96 73




NCC Satellite Simultaneous Nadir Overpasses (SNOs) Prediction Service
